AUA528L LIML-LOWW

Flight info

Callsign AUA528L
Flight time N/A
Altitude 34000
Route NESTI DCT ARALD/N0450F330 DCT ABTAN ABTAN2W
Aircraft A320/M-SDE3FGHIRWY/LB1

Departure

Time 2026-04-27 19:11
Airport Milano Linate Airport (LIML)

Arrival

Time N/A
Airport Vienna International Airport (LOWW)
Time Latitude Longitude Altitude Speed Heading
2026-04-27 18:33 45.45691 9.27893 365 ft 0 kts 90°
2026-04-27 19:05 45.45691 9.27930 360 ft 11 kts 90°
2026-04-27 19:05 45.45640 9.27979 360 ft 10 kts 178°
2026-04-27 19:06 45.45563 9.27979 360 ft 12 kts 181°
2026-04-27 19:06 45.45472 9.27978 363 ft 14 kts 176°
2026-04-27 19:06 45.45368 9.27965 360 ft 16 kts 206°
2026-04-27 19:06 45.45262 9.27889 360 ft 18 kts 200°
2026-04-27 19:07 45.45132 9.27874 360 ft 20 kts 174°
2026-04-27 19:07 45.44988 9.27891 360 ft 22 kts 173°
2026-04-27 19:07 45.44836 9.27940 362 ft 23 kts 174°
2026-04-27 19:07 45.44670 9.27958 360 ft 25 kts 175°
2026-04-27 19:08 45.44494 9.27976 360 ft 26 kts 175°
2026-04-27 19:08 45.44310 9.27997 360 ft 27 kts 175°
2026-04-27 19:08 45.44124 9.28018 362 ft 27 kts 174°
2026-04-27 19:08 45.43933 9.28038 361 ft 28 kts 176°
2026-04-27 19:09 45.43754 9.28057 361 ft 22 kts 175°
2026-04-27 19:09 45.43593 9.28073 361 ft 21 kts 175°
2026-04-27 19:09 45.43482 9.28078 361 ft 16 kts 195°
2026-04-27 19:09 45.43440 9.27940 360 ft 17 kts 264°
2026-04-27 19:10 45.43458 9.27819 365 ft 12 kts 335°
2026-04-27 19:10 45.43551 9.27808 362 ft 23 kts 355°
2026-04-27 19:10 45.43991 9.27762 360 ft 101 kts 355°
2026-04-27 19:10 45.44552 9.27702 365 ft 142 kts 356°
2026-04-27 19:11 45.46055 9.27540 886 ft 166 kts 353°
2026-04-27 19:11 45.47156 9.27094 1584 ft 168 kts 340°
2026-04-27 19:11 45.48332 9.26510 2037 ft 188 kts 340°
2026-04-27 19:11 45.49620 9.25859 2526 ft 204 kts 340°
2026-04-27 19:12 45.51016 9.25153 3005 ft 222 kts 340°
2026-04-27 19:12 45.52560 9.24391 3408 ft 248 kts 340°
2026-04-27 19:12 45.54256 9.23540 4004 ft 266 kts 340°
2026-04-27 19:12 45.56075 9.22904 4864 ft 275 kts 360°
2026-04-27 19:13 45.57969 9.23377 5818 ft 278 kts 18°
2026-04-27 19:13 45.59186 9.23933 6507 ft 278 kts 14°
2026-04-27 19:13 45.61132 9.24209 7461 ft 280 kts 358°
2026-04-27 19:13 45.63086 9.24074 8414 ft 282 kts 355°
2026-04-27 19:14 45.65047 9.23824 9368 ft 284 kts 354°
2026-04-27 19:14 45.67006 9.23520 10245 ft 289 kts 353°
2026-04-27 19:14 45.69081 9.23181 10614 ft 312 kts 354°
2026-04-27 19:14 45.71325 9.23304 10892 ft 336 kts 13°
2026-04-27 19:15 45.73482 9.24754 11359 ft 351 kts 37°
2026-04-27 19:15 45.75106 9.27392 12067 ft 359 kts 60°
2026-04-27 19:15 45.75879 9.30802 12797 ft 366 kts 84°
2026-04-27 19:15 45.75645 9.34450 13535 ft 372 kts 103°
2026-04-27 19:16 45.75031 9.38079 14237 ft 377 kts 103°
2026-04-27 19:16 45.74612 9.40497 14667 ft 380 kts 102°
2026-04-27 19:16 45.74252 9.45548 15530 ft 385 kts 87°
2026-04-27 19:16 45.74601 9.49358 16180 ft 387 kts 75°
2026-04-27 19:17 45.75348 9.53074 16830 ft 391 kts 72°
2026-04-27 19:17 45.76054 9.56856 17456 ft 396 kts 78°
2026-04-27 19:17 45.76366 9.60803 18077 ft 401 kts 84°
2026-04-27 19:17 45.76572 9.64809 18684 ft 406 kts 84°
2026-04-27 19:18 45.76778 9.68813 19229 ft 410 kts 84°
2026-04-27 19:18 45.76994 9.72913 19806 ft 414 kts 84°
2026-04-27 19:18 45.77211 9.77036 20383 ft 417 kts 84°
2026-04-27 19:18 45.77427 9.81198 20924 ft 421 kts 84°
2026-04-27 19:19 45.77647 9.85404 21462 ft 425 kts 84°
2026-04-27 19:19 45.77867 9.89635 21993 ft 428 kts 84°
2026-04-27 19:19 45.78086 9.93900 22513 ft 431 kts 84°
2026-04-27 19:19 45.78304 9.98201 23023 ft 435 kts 84°
2026-04-27 19:20 45.78523 10.02543 23527 ft 438 kts 84°
2026-04-27 19:20 45.78738 10.06911 23938 ft 441 kts 84°
2026-04-27 19:20 45.78952 10.11308 24328 ft 444 kts 84°
2026-04-27 19:20 45.79166 10.15744 24739 ft 447 kts 84°
2026-04-27 19:21 45.79373 10.20142 25116 ft 449 kts 84°
2026-04-27 19:21 45.79579 10.24613 25496 ft 452 kts 84°
2026-04-27 19:21 45.79784 10.29169 25863 ft 453 kts 84°
2026-04-27 19:21 45.79985 10.33632 26248 ft 455 kts 84°
2026-04-27 19:22 45.80206 10.38162 26610 ft 457 kts 82°
2026-04-27 19:22 45.80770 10.42645 26985 ft 457 kts 73°
2026-04-27 19:22 45.81789 10.46951 27306 ft 456 kts 64°
2026-04-27 19:22 45.83132 10.51086 27631 ft 458 kts 62°
2026-04-27 19:23 45.84496 10.55232 27955 ft 460 kts 62°
2026-04-27 19:23 45.85859 10.59403 28273 ft 462 kts 62°
2026-04-27 19:23 45.87222 10.63594 28596 ft 464 kts 62°
2026-04-27 19:23 45.88592 10.67820 28863 ft 468 kts 62°
2026-04-27 19:24 45.89967 10.72062 29131 ft 470 kts 62°
2026-04-27 19:24 45.91351 10.76330 29445 ft 472 kts 62°
2026-04-27 19:24 45.92734 10.80604 29689 ft 473 kts 62°
2026-04-27 19:24 45.94123 10.84909 29934 ft 475 kts 62°
2026-04-27 19:25 45.95506 10.89211 30253 ft 474 kts 62°
2026-04-27 19:25 45.96888 10.93521 30528 ft 474 kts 62°
2026-04-27 19:25 45.98265 10.97820 30837 ft 473 kts 62°
2026-04-27 19:25 45.99639 11.02115 31150 ft 472 kts 62°
2026-04-27 19:26 46.01010 11.06402 31471 ft 471 kts 62°
2026-04-27 19:26 46.02359 11.10620 31760 ft 470 kts 62°
2026-04-27 19:26 46.03725 11.14896 32085 ft 470 kts 62°
2026-04-27 19:26 46.05087 11.19172 32397 ft 470 kts 62°
2026-04-27 19:27 46.06447 11.23453 32691 ft 469 kts 62°
2026-04-27 19:27 46.07799 11.27721 32936 ft 469 kts 62°
2026-04-27 19:27 46.09151 11.31991 33252 ft 468 kts 62°
2026-04-27 19:27 46.10500 11.36259 33583 ft 467 kts 62°
2026-04-27 19:28 46.11846 11.40518 33907 ft 466 kts 62°
2026-04-27 19:28 46.13188 11.44769 34192 ft 466 kts 62°
2026-04-27 19:28 46.14529 11.49026 34436 ft 466 kts 62°
2026-04-27 19:28 46.15865 11.53280 34687 ft 466 kts 62°
2026-04-27 19:29 46.17198 11.57533 34954 ft 465 kts 62°
2026-04-27 19:29 46.18536 11.61800 35213 ft 465 kts 62°
2026-04-27 19:29 46.19868 11.66048 35444 ft 465 kts 62°
2026-04-27 19:29 46.21183 11.70257 35682 ft 465 kts 62°
2026-04-27 19:30 46.22511 11.74519 35946 ft 465 kts 62°
2026-04-27 19:30 46.23836 11.78783 36073 ft 466 kts 62°
2026-04-27 19:30 46.25160 11.83054 36108 ft 466 kts 62°
2026-04-27 19:31 46.27804 11.91603 36094 ft 465 kts 62°
2026-04-27 19:31 46.30444 12.00155 36101 ft 466 kts 62°
2026-04-27 19:32 46.33074 12.08720 36110 ft 465 kts 62°
2026-04-27 19:32 46.35704 12.17290 36098 ft 466 kts 62°
2026-04-27 19:33 46.38321 12.25859 36092 ft 465 kts 62°
2026-04-27 19:33 46.40929 12.34429 36103 ft 466 kts 62°
2026-04-27 19:34 46.43540 12.43032 36119 ft 466 kts 62°
2026-04-27 19:34 46.46125 12.51585 36114 ft 466 kts 63°
2026-04-27 19:35 46.48728 12.60204 36131 ft 466 kts 62°
2026-04-27 19:35 46.51327 12.68825 36122 ft 467 kts 62°
2026-04-27 19:36 46.53915 12.77473 36113 ft 467 kts 63°
2026-04-27 19:36 46.56489 12.86136 36112 ft 467 kts 63°
2026-04-27 19:37 46.59061 12.94813 36112 ft 468 kts 63°
2026-04-27 19:37 46.61638 13.03497 36114 ft 468 kts 63°
2026-04-27 19:38 46.64213 13.12209 36136 ft 468 kts 63°
2026-04-27 19:38 46.66770 13.20918 36126 ft 468 kts 63°
2026-04-27 19:39 46.69379 13.29600 36126 ft 467 kts 60°
2026-04-27 19:39 46.72338 13.38007 36123 ft 465 kts 57°
2026-04-27 19:40 46.75436 13.46303 36122 ft 466 kts 57°
2026-04-27 19:40 46.78470 13.54665 36131 ft 467 kts 58°
2026-04-27 19:41 46.81433 13.63099 36143 ft 467 kts 59°
2026-04-27 19:41 46.84361 13.71487 36140 ft 466 kts 59°
2026-04-27 19:42 46.87310 13.79934 36138 ft 466 kts 59°
2026-04-27 19:42 46.90259 13.88375 36139 ft 466 kts 59°
2026-04-27 19:43 46.93208 13.96825 36141 ft 466 kts 59°
2026-04-27 19:43 46.96153 14.05292 36157 ft 467 kts 59°
2026-04-27 19:44 46.99090 14.13774 36145 ft 467 kts 59°
2026-04-27 19:44 47.02020 14.22260 36144 ft 467 kts 59°
2026-04-27 19:45 47.04926 14.30696 36143 ft 467 kts 59°
2026-04-27 19:45 47.07859 14.39255 36143 ft 467 kts 59°
2026-04-27 19:46 47.10720 14.47749 36165 ft 468 kts 63°
2026-04-27 19:46 47.12638 14.56956 36195 ft 473 kts 72°
2026-04-27 19:47 47.14257 14.66332 36195 ft 473 kts 72°
2026-04-27 19:47 47.15862 14.75705 36178 ft 473 kts 72°
2026-04-27 19:47 47.16665 14.80403 35785 ft 474 kts 72°
2026-04-27 19:48 47.17465 14.85090 35358 ft 473 kts 72°
2026-04-27 19:48 47.18263 14.89777 34936 ft 473 kts 72°
2026-04-27 19:48 47.19060 14.94477 34518 ft 473 kts 72°
2026-04-27 19:48 47.19851 14.99175 33963 ft 474 kts 72°
2026-04-27 19:49 47.20640 15.03890 33159 ft 475 kts 72°
2026-04-27 19:49 47.21419 15.08546 32376 ft 476 kts 72°
2026-04-27 19:49 47.22213 15.13290 31609 ft 478 kts 73°
2026-04-27 19:49 47.23009 15.18045 30859 ft 480 kts 73°
2026-04-27 19:50 47.23807 15.22825 30113 ft 482 kts 73°
2026-04-27 19:50 47.24606 15.27623 29260 ft 484 kts 73°
2026-04-27 19:50 47.25407 15.32440 28435 ft 485 kts 73°
2026-04-27 19:50 47.26206 15.37264 27635 ft 484 kts 73°
2026-04-27 19:51 47.26996 15.42064 26860 ft 479 kts 73°
2026-04-27 19:51 47.27773 15.46804 26104 ft 474 kts 74°
2026-04-27 19:51 47.28542 15.51506 25379 ft 470 kts 74°
2026-04-27 19:51 47.29300 15.56163 24660 ft 465 kts 74°
2026-04-27 19:52 47.30047 15.60775 23968 ft 461 kts 74°
2026-04-27 19:52 47.30538 15.63815 23463 ft 458 kts 74°
2026-04-27 19:52 47.31522 15.69890 22372 ft 453 kts 74°
2026-04-27 19:52 47.32251 15.74398 21582 ft 450 kts 74°
2026-04-27 19:53 47.33685 15.83309 20080 ft 444 kts 75°
2026-04-27 19:53 47.34392 15.87718 19355 ft 441 kts 75°
2026-04-27 19:53 47.35093 15.92103 18643 ft 438 kts 74°
2026-04-27 19:54 47.36065 15.96324 17873 ft 432 kts 62°
2026-04-27 19:54 47.37588 16.00063 17289 ft 421 kts 50°
2026-04-27 19:54 47.39542 16.03187 16718 ft 411 kts 38°
2026-04-27 19:54 47.41837 16.05617 16156 ft 402 kts 27°
2026-04-27 19:55 47.44351 16.07283 15645 ft 392 kts 16°
2026-04-27 19:55 47.46916 16.08543 15176 ft 385 kts 15°
2026-04-27 19:55 47.49409 16.09776 14722 ft 380 kts 16°
2026-04-27 19:55 47.51908 16.11018 14348 ft 377 kts 16°
2026-04-27 19:56 47.54380 16.12250 14040 ft 374 kts 16°
2026-04-27 19:56 47.56833 16.13477 13700 ft 371 kts 16°
2026-04-27 19:56 47.59277 16.14700 13352 ft 369 kts 15°
2026-04-27 19:56 47.61708 16.15915 13009 ft 367 kts 15°
2026-04-27 19:57 47.64124 16.17123 12674 ft 365 kts 15°
2026-04-27 19:57 47.66527 16.18326 12334 ft 363 kts 15°
2026-04-27 19:57 47.68917 16.19523 12000 ft 362 kts 15°
2026-04-27 19:57 47.71292 16.20708 11675 ft 360 kts 15°
2026-04-27 19:58 47.73659 16.21887 11286 ft 358 kts 15°
2026-04-27 19:58 47.76031 16.22889 10897 ft 348 kts
2026-04-27 19:58 47.78372 16.23202 10749 ft 328 kts 356°
2026-04-27 19:58 47.80588 16.23031 10626 ft 311 kts 353°
2026-04-27 19:59 47.82700 16.22842 10497 ft 298 kts 353°
2026-04-27 19:59 47.84725 16.22660 10376 ft 285 kts 353°
2026-04-27 19:59 47.86649 16.22484 10174 ft 277 kts 353°
2026-04-27 19:59 47.88562 16.22308 9822 ft 274 kts 353°
2026-04-27 20:00 47.90440 16.22134 9625 ft 265 kts 353°
2026-04-27 20:00 47.92245 16.21967 9465 ft 255 kts 353°
2026-04-27 20:00 47.94010 16.21801 9143 ft 253 kts 353°
2026-04-27 20:00 47.95765 16.21634 8755 ft 252 kts 353°
2026-04-27 20:01 47.97515 16.21470 8370 ft 252 kts 353°
2026-04-27 20:01 47.99262 16.21307 7998 ft 251 kts 354°
2026-04-27 20:01 48.00399 16.21202 7880 ft 244 kts 354°
2026-04-27 20:01 48.02625 16.20998 7570 ft 235 kts 354°
2026-04-27 20:02 48.03698 16.20899 7429 ft 232 kts 354°
2026-04-27 20:02 48.05295 16.20753 7205 ft 228 kts 354°
2026-04-27 20:02 48.06863 16.20608 6994 ft 223 kts 354°
2026-04-27 20:02 48.08401 16.20464 6765 ft 219 kts 354°
2026-04-27 20:03 48.09912 16.20320 6537 ft 216 kts 354°